TIANLIAN 2-03

Last updated on Wed Sep 17 2025 00:02:51 GMT+0000 (Coordinated Universal Time)

1 53100U 22078A 25258.98409101 .00000054 00000+0 00000+0 0 9999 2 53100 0.1066 332.7519 0001918 246.4403 140.7943 1.00272733 11809
UTC large
Height (km)
Speed (km/s)
/
Latitude / Longitude
Inclination (degrees)
Orbital Period (minutes)
Azimuth
Elevation
Range (km)
Doppler Factor

Next 0 passes for location: London (51.5072 / 0.1276)

Sorry there are no passes over London.